Year,Month,Day,Hour,Minute,Value (Times are PST for temperature in C)
2013,09,15,00,00,10.00
2013,09,15,00,01,10.00
2013,09,15,00,02,10.00
2013,09,15,00,03,10.00
2013,09,15,00,04,10.00
2013,09,15,00,05,10.00
2013,09,15,00,06,10.00
2013,09,15,00,07,10.00
2013,09,15,00,08,10.00
2013,09,15,00,09,10.00
2013,09,15,00,10,10.00
2013,09,15,00,11,10.00
2013,09,15,00,12,10.00
2013,09,15,00,13,9.90
2013,09,15,00,14,9.90
2013,09,15,00,15,9.90
2013,09,15,00,16,9.90
2013,09,15,00,17,9.90
2013,09,15,00,18,9.90
2013,09,15,00,19,9.90
2013,09,15,00,20,9.90
2013,09,15,00,21,9.90
2013,09,15,00,22,9.90
2013,09,15,00,23,9.90
2013,09,15,00,24,9.90
2013,09,15,00,25,9.90
2013,09,15,00,26,9.90
2013,09,15,00,27,9.90
2013,09,15,00,28,9.90
2013,09,15,00,29,9.90
2013,09,15,00,30,9.90
2013,09,15,00,31,9.90
2013,09,15,00,32,9.90
2013,09,15,00,33,9.90
2013,09,15,00,34,9.90
2013,09,15,00,35,9.90
2013,09,15,00,36,9.90
2013,09,15,00,37,9.90
2013,09,15,00,38,9.90
2013,09,15,00,39,9.90
2013,09,15,00,40,9.90
2013,09,15,00,41,9.90
2013,09,15,00,42,9.90
2013,09,15,00,43,9.90
2013,09,15,00,44,9.90
2013,09,15,00,45,9.90
2013,09,15,00,46,9.90
2013,09,15,00,47,9.90
2013,09,15,00,48,9.90
2013,09,15,00,49,9.90
2013,09,15,00,50,10.00
2013,09,15,00,51,10.00
2013,09,15,00,52,10.00
2013,09,15,00,53,10.00
2013,09,15,00,54,10.00
2013,09,15,00,55,10.00
2013,09,15,00,56,10.00
2013,09,15,00,57,10.00
2013,09,15,00,58,10.00
2013,09,15,00,59,10.00
2013,09,15,01,00,10.00
2013,09,15,01,01,10.00
2013,09,15,01,02,10.00
2013,09,15,01,03,9.90
2013,09,15,01,04,9.90
2013,09,15,01,05,9.90
2013,09,15,01,06,9.90
2013,09,15,01,07,9.90
2013,09,15,01,08,9.90
2013,09,15,01,09,9.90
2013,09,15,01,10,9.90
2013,09,15,01,11,9.90
2013,09,15,01,12,9.90
2013,09,15,01,13,9.90
2013,09,15,01,14,9.90
2013,09,15,01,15,9.90
2013,09,15,01,16,9.90
2013,09,15,01,17,9.90
2013,09,15,01,18,9.90
2013,09,15,01,19,9.90
2013,09,15,01,20,9.90
2013,09,15,01,21,9.90
2013,09,15,01,22,9.90
2013,09,15,01,23,9.90
2013,09,15,01,24,9.90
2013,09,15,01,25,9.90
2013,09,15,01,26,9.90
2013,09,15,01,27,9.90
2013,09,15,01,28,9.90
2013,09,15,01,29,9.90
2013,09,15,01,30,9.90
2013,09,15,01,31,9.90
2013,09,15,01,32,9.90
2013,09,15,01,33,9.90
2013,09,15,01,34,9.90
2013,09,15,01,35,9.90
2013,09,15,01,36,9.90
2013,09,15,01,37,9.90
2013,09,15,01,38,9.90
2013,09,15,01,39,9.80
2013,09,15,01,40,9.80
2013,09,15,01,41,9.80
2013,09,15,01,42,9.80
2013,09,15,01,43,9.80
2013,09,15,01,44,9.80
2013,09,15,01,45,9.80
2013,09,15,01,46,9.70
2013,09,15,01,47,9.70
2013,09,15,01,48,9.70
2013,09,15,01,49,9.70
2013,09,15,01,50,9.70
2013,09,15,01,51,9.70
2013,09,15,01,52,9.70
2013,09,15,01,53,9.70
2013,09,15,01,54,9.70
2013,09,15,01,55,9.70
2013,09,15,01,56,9.60
2013,09,15,01,57,9.60
2013,09,15,01,58,9.60
2013,09,15,01,59,9.60
2013,09,15,02,00,9.60
2013,09,15,02,01,9.60
2013,09,15,02,02,9.60
2013,09,15,02,03,9.60
2013,09,15,02,04,9.60
2013,09,15,02,05,9.60
2013,09,15,02,06,9.60
2013,09,15,02,07,9.60
2013,09,15,02,08,9.60
2013,09,15,02,09,9.60
2013,09,15,02,10,9.60
2013,09,15,02,11,9.50
2013,09,15,02,12,9.50
2013,09,15,02,13,9.50
2013,09,15,02,14,9.50
2013,09,15,02,15,9.50
2013,09,15,02,16,9.50
2013,09,15,02,17,9.50
2013,09,15,02,18,9.50
2013,09,15,02,19,9.50
2013,09,15,02,20,9.50
2013,09,15,02,21,9.40
2013,09,15,02,22,9.40
2013,09,15,02,23,9.40
2013,09,15,02,24,9.40
2013,09,15,02,25,9.40
2013,09,15,02,26,9.40
2013,09,15,02,27,9.40
2013,09,15,02,28,9.40
2013,09,15,02,29,9.40
2013,09,15,02,30,9.40
2013,09,15,02,31,9.40
2013,09,15,02,32,9.30
2013,09,15,02,33,9.30
2013,09,15,02,34,9.30
2013,09,15,02,35,9.30
2013,09,15,02,36,9.40
2013,09,15,02,37,9.40
2013,09,15,02,38,9.40
2013,09,15,02,39,9.40
2013,09,15,02,40,9.40
2013,09,15,02,41,9.40
2013,09,15,02,42,9.40
2013,09,15,02,43,9.40
2013,09,15,02,44,9.40
2013,09,15,02,45,9.30
2013,09,15,02,46,9.30
2013,09,15,02,47,9.30
2013,09,15,02,48,9.30
2013,09,15,02,49,9.30
2013,09,15,02,50,9.30
2013,09,15,02,51,9.30
2013,09,15,02,52,9.30
2013,09,15,02,53,9.30
2013,09,15,02,54,9.30
2013,09,15,02,55,9.30
2013,09,15,02,56,9.30
2013,09,15,02,57,9.30
2013,09,15,02,58,9.30
2013,09,15,02,59,9.30
2013,09,15,03,00,9.30
2013,09,15,03,01,9.30
2013,09,15,03,02,9.30
2013,09,15,03,03,9.30
2013,09,15,03,04,9.40
2013,09,15,03,05,9.40
2013,09,15,03,06,9.40
2013,09,15,03,07,9.40
2013,09,15,03,08,9.40
2013,09,15,03,09,9.40
2013,09,15,03,10,9.40
2013,09,15,03,11,9.50
2013,09,15,03,12,9.50
2013,09,15,03,13,9.50
2013,09,15,03,14,9.50
2013,09,15,03,15,9.50
2013,09,15,03,16,9.60
2013,09,15,03,17,9.60
2013,09,15,03,18,9.60
2013,09,15,03,19,9.60
2013,09,15,03,20,9.60
2013,09,15,03,21,9.60
2013,09,15,03,22,9.60
2013,09,15,03,23,9.60
2013,09,15,03,24,9.60
2013,09,15,03,25,9.60
2013,09,15,03,26,9.60
2013,09,15,03,27,9.60
2013,09,15,03,28,9.60
2013,09,15,03,29,9.60
2013,09,15,03,30,9.50
2013,09,15,03,31,9.50
2013,09,15,03,32,9.50
2013,09,15,03,33,9.50
2013,09,15,03,34,9.50
2013,09,15,03,35,9.40
2013,09,15,03,36,9.40
2013,09,15,03,37,9.40
2013,09,15,03,38,9.40
2013,09,15,03,39,9.40
2013,09,15,03,40,9.40
2013,09,15,03,41,9.40
2013,09,15,03,42,9.40
2013,09,15,03,43,9.30
2013,09,15,03,44,9.30
2013,09,15,03,45,9.30
2013,09,15,03,46,9.30
2013,09,15,03,47,9.30
2013,09,15,03,48,9.30
2013,09,15,03,49,9.30
2013,09,15,03,50,9.30
2013,09,15,03,51,9.30
2013,09,15,03,52,9.30
2013,09,15,03,53,9.30
2013,09,15,03,54,9.30
2013,09,15,03,55,9.30
2013,09,15,03,56,9.30
2013,09,15,03,57,9.30
2013,09,15,03,58,9.40
2013,09,15,03,59,9.40
2013,09,15,04,00,9.40
2013,09,15,04,01,9.40
2013,09,15,04,02,9.40
2013,09,15,04,03,9.40
2013,09,15,04,04,9.40
2013,09,15,04,05,9.50
2013,09,15,04,06,9.50
2013,09,15,04,07,9.50
2013,09,15,04,08,9.50
2013,09,15,04,09,9.50
2013,09,15,04,10,9.50
2013,09,15,04,11,9.60
2013,09,15,04,12,9.60
2013,09,15,04,13,9.60
2013,09,15,04,14,9.60
2013,09,15,04,15,9.60
2013,09,15,04,16,9.60
2013,09,15,04,17,9.60
2013,09,15,04,18,9.60
2013,09,15,04,19,9.70
2013,09,15,04,20,9.70
2013,09,15,04,21,9.70
2013,09,15,04,22,9.70
2013,09,15,04,23,9.70
2013,09,15,04,24,9.70
2013,09,15,04,25,9.70
2013,09,15,04,26,9.70
2013,09,15,04,27,9.80
2013,09,15,04,28,9.80
2013,09,15,04,29,9.80
2013,09,15,04,30,9.80
2013,09,15,04,31,9.80
2013,09,15,04,32,9.80
2013,09,15,04,33,9.80
2013,09,15,04,34,9.90
2013,09,15,04,35,9.90
2013,09,15,04,36,9.90
2013,09,15,04,37,9.90
2013,09,15,04,38,9.90
2013,09,15,04,39,9.90
2013,09,15,04,40,9.90
2013,09,15,04,41,10.00
2013,09,15,04,42,10.00
2013,09,15,04,43,10.00
2013,09,15,04,44,10.00
2013,09,15,04,45,10.10
2013,09,15,04,46,10.10
2013,09,15,04,47,10.10
2013,09,15,04,48,10.10
2013,09,15,04,49,10.10
2013,09,15,04,50,10.10
2013,09,15,04,51,10.10
2013,09,15,04,52,10.10
2013,09,15,04,53,10.10
2013,09,15,04,54,10.10
2013,09,15,04,55,10.20
2013,09,15,04,56,10.20
2013,09,15,04,57,10.20
2013,09,15,04,58,10.20
2013,09,15,04,59,10.20
2013,09,15,05,00,10.20
2013,09,15,05,01,10.20
2013,09,15,05,02,10.20
2013,09,15,05,03,10.20
2013,09,15,05,04,10.20
2013,09,15,05,05,10.20
2013,09,15,05,06,10.30
2013,09,15,05,07,10.30
2013,09,15,05,08,10.30
2013,09,15,05,09,10.30
2013,09,15,05,10,10.30
2013,09,15,05,11,10.30
2013,09,15,05,12,10.30
2013,09,15,05,13,10.30
2013,09,15,05,14,10.30
2013,09,15,05,15,10.30
2013,09,15,05,16,10.30
2013,09,15,05,17,10.40
2013,09,15,05,18,10.40
2013,09,15,05,19,10.40
2013,09,15,05,20,10.40
2013,09,15,05,21,10.50
2013,09,15,05,22,10.50
2013,09,15,05,23,10.50
2013,09,15,05,24,10.60
2013,09,15,05,25,10.60
2013,09,15,05,26,10.60
2013,09,15,05,27,10.60
2013,09,15,05,28,10.60
2013,09,15,05,29,10.60
2013,09,15,05,30,10.60
2013,09,15,05,31,10.60
2013,09,15,05,32,10.60
2013,09,15,05,33,10.60
2013,09,15,05,34,10.60
2013,09,15,05,35,10.60
2013,09,15,05,36,10.60
2013,09,15,05,37,10.60
2013,09,15,05,38,10.60
2013,09,15,05,39,10.70
2013,09,15,05,40,10.70
2013,09,15,05,41,10.70
2013,09,15,05,42,10.70
2013,09,15,05,43,10.70
2013,09,15,05,44,10.70
2013,09,15,05,45,10.70
2013,09,15,05,46,10.70
2013,09,15,05,47,10.70
2013,09,15,05,48,10.70
2013,09,15,05,49,10.70
2013,09,15,05,50,10.70
2013,09,15,05,51,10.70
2013,09,15,05,52,10.70
2013,09,15,05,53,10.70
2013,09,15,05,54,10.70
2013,09,15,05,55,10.70
2013,09,15,05,56,10.70
2013,09,15,05,57,10.70
2013,09,15,05,58,10.70
2013,09,15,05,59,10.70
2013,09,15,06,00,10.70
2013,09,15,06,01,10.70
2013,09,15,06,02,10.70
2013,09,15,06,03,10.70
2013,09,15,06,04,10.70
2013,09,15,06,05,10.70
2013,09,15,06,06,10.70
2013,09,15,06,07,10.70
2013,09,15,06,08,10.70
2013,09,15,06,09,10.70
2013,09,15,06,10,10.70
2013,09,15,06,11,10.70
2013,09,15,06,12,10.70
2013,09,15,06,13,10.70
2013,09,15,06,14,10.80
2013,09,15,06,15,10.80
2013,09,15,06,16,10.80
2013,09,15,06,17,10.80
2013,09,15,06,18,10.80
2013,09,15,06,19,10.80
2013,09,15,06,20,10.80
2013,09,15,06,21,10.80
2013,09,15,06,22,10.80
2013,09,15,06,23,10.80
2013,09,15,06,24,10.80
2013,09,15,06,25,10.90
2013,09,15,06,26,10.90
2013,09,15,06,27,10.90
2013,09,15,06,28,10.90
2013,09,15,06,29,10.90
2013,09,15,06,30,10.90
2013,09,15,06,31,10.90
2013,09,15,06,32,10.90
2013,09,15,06,33,10.90
2013,09,15,06,34,11.00
2013,09,15,06,35,11.00
2013,09,15,06,36,11.00
2013,09,15,06,37,11.00
2013,09,15,06,38,11.00
2013,09,15,06,39,11.00
2013,09,15,06,40,11.00
2013,09,15,06,41,11.00
2013,09,15,06,42,11.00
2013,09,15,06,43,11.00
2013,09,15,06,44,11.00
2013,09,15,06,45,11.00
2013,09,15,06,46,11.00
2013,09,15,06,47,11.00
2013,09,15,06,48,11.00
2013,09,15,06,49,11.00
2013,09,15,06,50,11.00
2013,09,15,06,51,11.10
2013,09,15,06,52,11.00
2013,09,15,06,53,11.10
2013,09,15,06,54,11.10
2013,09,15,06,55,11.10
2013,09,15,06,56,11.10
2013,09,15,06,57,11.10
2013,09,15,06,58,11.10
2013,09,15,06,59,11.10
2013,09,15,07,00,11.10
2013,09,15,07,01,11.10
2013,09,15,07,02,11.10
2013,09,15,07,03,11.10
2013,09,15,07,04,11.10
2013,09,15,07,05,11.10
2013,09,15,07,06,11.10
2013,09,15,07,07,11.10
2013,09,15,07,08,11.10
2013,09,15,07,09,11.10
2013,09,15,07,10,11.10
2013,09,15,07,11,11.10
2013,09,15,07,12,11.10
2013,09,15,07,13,11.10
2013,09,15,07,14,11.10
2013,09,15,07,15,11.10
2013,09,15,07,16,11.10
2013,09,15,07,17,11.10
2013,09,15,07,18,11.10
2013,09,15,07,19,11.20
2013,09,15,07,20,11.20
2013,09,15,07,21,11.20
2013,09,15,07,22,11.20
2013,09,15,07,23,11.20
2013,09,15,07,24,11.20
2013,09,15,07,25,11.20
2013,09,15,07,26,11.20
2013,09,15,07,27,11.20
2013,09,15,07,28,11.20
2013,09,15,07,29,11.20
2013,09,15,07,30,11.20
2013,09,15,07,31,11.30
2013,09,15,07,32,11.30
2013,09,15,07,33,11.30
2013,09,15,07,34,11.30
2013,09,15,07,35,11.30
2013,09,15,07,36,11.30
2013,09,15,07,37,11.30
2013,09,15,07,38,11.30
2013,09,15,07,39,11.30
2013,09,15,07,40,11.30
2013,09,15,07,41,11.30
2013,09,15,07,42,11.30
2013,09,15,07,43,11.30
2013,09,15,07,44,11.30
2013,09,15,07,45,11.40
2013,09,15,07,46,11.40
2013,09,15,07,47,11.40
2013,09,15,07,48,11.40
2013,09,15,07,49,11.40
2013,09,15,07,50,11.40
2013,09,15,07,51,11.40
2013,09,15,07,52,11.50
2013,09,15,07,53,11.50
2013,09,15,07,54,11.50
2013,09,15,07,55,11.50
2013,09,15,07,56,11.60
2013,09,15,07,57,11.60
2013,09,15,07,58,11.60
2013,09,15,07,59,11.60
2013,09,15,08,00,11.60
2013,09,15,08,01,11.60
2013,09,15,08,02,11.60
2013,09,15,08,03,11.60
2013,09,15,08,04,11.70
2013,09,15,08,05,11.70
2013,09,15,08,06,11.70
2013,09,15,08,07,11.70
2013,09,15,08,08,11.70
2013,09,15,08,09,11.70
2013,09,15,08,10,11.70
2013,09,15,08,11,11.70
2013,09,15,08,12,11.80
2013,09,15,08,13,11.80
2013,09,15,08,14,11.80
2013,09,15,08,15,11.80
2013,09,15,08,16,11.80
2013,09,15,08,17,11.80
2013,09,15,08,18,11.80
2013,09,15,08,19,11.90
2013,09,15,08,20,11.90
2013,09,15,08,21,11.90
2013,09,15,08,22,11.90
2013,09,15,08,23,11.90
2013,09,15,08,24,11.90
2013,09,15,08,25,11.90
2013,09,15,08,26,11.90
2013,09,15,08,27,12.00
2013,09,15,08,28,12.00
2013,09,15,08,29,12.00
2013,09,15,08,30,12.00
2013,09,15,08,31,12.00
2013,09,15,08,32,12.00
2013,09,15,08,33,12.00
2013,09,15,08,34,12.00
2013,09,15,08,35,12.00
2013,09,15,08,36,12.00
2013,09,15,08,37,12.10
2013,09,15,08,38,12.10
2013,09,15,08,39,12.10
2013,09,15,08,40,12.10
2013,09,15,08,41,12.10
2013,09,15,08,42,12.10
2013,09,15,08,43,12.10
2013,09,15,08,44,12.10
2013,09,15,08,45,12.20
2013,09,15,08,46,12.20
2013,09,15,08,47,12.20
2013,09,15,08,48,12.30
2013,09,15,08,49,12.30
2013,09,15,08,50,12.30
2013,09,15,08,51,12.30
2013,09,15,08,52,12.30
2013,09,15,08,53,12.30
2013,09,15,08,54,12.30
2013,09,15,08,55,12.40
2013,09,15,08,56,12.40
2013,09,15,08,57,12.40
2013,09,15,08,58,12.40
2013,09,15,08,59,12.40
2013,09,15,09,00,12.50
2013,09,15,09,01,12.50
2013,09,15,09,02,12.50
2013,09,15,09,03,12.50
2013,09,15,09,04,12.60
2013,09,15,09,05,12.60
2013,09,15,09,06,12.60
2013,09,15,09,07,12.60
2013,09,15,09,08,12.60
2013,09,15,09,09,12.70
2013,09,15,09,10,12.70
2013,09,15,09,11,12.70
2013,09,15,09,12,12.60
2013,09,15,09,13,12.70
2013,09,15,09,14,12.70
2013,09,15,09,15,12.70
2013,09,15,09,16,12.70
2013,09,15,09,17,12.70
2013,09,15,09,18,12.70
2013,09,15,09,19,12.80
2013,09,15,09,20,12.80
2013,09,15,09,21,12.80
2013,09,15,09,22,12.80
2013,09,15,09,23,12.80
2013,09,15,09,24,12.90
2013,09,15,09,25,12.90
2013,09,15,09,26,12.90
2013,09,15,09,27,12.90
2013,09,15,09,28,12.90
2013,09,15,09,29,12.90
2013,09,15,09,30,12.90
2013,09,15,09,31,12.90
2013,09,15,09,32,12.90
2013,09,15,09,33,12.90
2013,09,15,09,34,12.90
2013,09,15,09,35,13.00
2013,09,15,09,36,13.00
2013,09,15,09,37,13.00
2013,09,15,09,38,13.00
2013,09,15,09,39,13.10
2013,09,15,09,40,13.10
2013,09,15,09,41,13.10
2013,09,15,09,42,13.10
2013,09,15,09,43,13.10
2013,09,15,09,44,13.10
2013,09,15,09,45,13.10
2013,09,15,09,46,13.10
2013,09,15,09,47,13.10
2013,09,15,09,48,13.10
2013,09,15,09,49,13.10
2013,09,15,09,50,13.10
2013,09,15,09,51,13.10
2013,09,15,09,52,13.20
2013,09,15,09,53,13.20
2013,09,15,09,54,13.20
2013,09,15,09,55,13.20
2013,09,15,09,56,13.30
2013,09,15,09,57,13.30
2013,09,15,09,58,13.30
2013,09,15,09,59,13.30
2013,09,15,10,00,13.40
2013,09,15,10,01,13.40
2013,09,15,10,02,13.40
2013,09,15,10,03,13.40
2013,09,15,10,04,13.40
2013,09,15,10,05,13.40
2013,09,15,10,06,13.40
2013,09,15,10,07,13.40
2013,09,15,10,08,13.40
2013,09,15,10,09,13.40
2013,09,15,10,10,13.40
2013,09,15,10,11,13.40
2013,09,15,10,12,13.30
2013,09,15,10,13,13.30
2013,09,15,10,14,13.20
2013,09,15,10,15,13.20
2013,09,15,10,16,13.10
2013,09,15,10,17,13.00
2013,09,15,10,18,13.00
2013,09,15,10,19,12.90
2013,09,15,10,20,12.90
2013,09,15,10,21,12.80
2013,09,15,10,22,12.80
2013,09,15,10,23,12.80
2013,09,15,10,24,12.80
2013,09,15,10,25,12.80
2013,09,15,10,26,12.80
2013,09,15,10,27,12.80
2013,09,15,10,28,12.80
2013,09,15,10,29,12.80
2013,09,15,10,30,12.90
2013,09,15,10,31,12.90
2013,09,15,10,32,13.00
2013,09,15,10,33,13.00
2013,09,15,10,34,13.10
2013,09,15,10,35,13.10
2013,09,15,10,36,13.20
2013,09,15,10,37,13.20
2013,09,15,10,38,13.20
2013,09,15,10,39,13.30
2013,09,15,10,40,13.30
2013,09,15,10,41,13.30
2013,09,15,10,42,13.30
2013,09,15,10,43,13.40
2013,09,15,10,44,13.40
2013,09,15,10,45,13.40
2013,09,15,10,46,13.40
2013,09,15,10,47,13.40
2013,09,15,10,48,13.50
2013,09,15,10,49,13.50
2013,09,15,10,50,13.50
2013,09,15,10,51,13.60
2013,09,15,10,52,13.60
2013,09,15,10,53,13.70
2013,09,15,10,54,13.70
2013,09,15,10,55,13.80
2013,09,15,10,56,13.80
2013,09,15,10,57,13.90
2013,09,15,10,58,14.00
2013,09,15,10,59,14.00
2013,09,15,11,00,14.00
2013,09,15,11,01,14.00
2013,09,15,11,02,14.10
2013,09,15,11,03,14.10
2013,09,15,11,04,14.10
2013,09,15,11,05,14.10
2013,09,15,11,06,14.10
2013,09,15,11,07,14.10
2013,09,15,11,08,14.10
2013,09,15,11,09,14.10
2013,09,15,11,10,14.20
2013,09,15,11,11,14.20
2013,09,15,11,12,14.20
2013,09,15,11,13,14.20
2013,09,15,11,14,14.20
2013,09,15,11,15,14.30
2013,09,15,11,16,14.30
2013,09,15,11,17,14.30
2013,09,15,11,18,14.30
2013,09,15,11,19,14.30
2013,09,15,11,20,14.30
2013,09,15,11,21,14.40
2013,09,15,11,22,14.40
2013,09,15,11,23,14.40
2013,09,15,11,24,14.40
2013,09,15,11,25,14.40
2013,09,15,11,26,14.40
2013,09,15,11,27,14.40
2013,09,15,11,28,14.40
2013,09,15,11,29,14.40
2013,09,15,11,30,14.50
2013,09,15,11,31,14.50
2013,09,15,11,32,14.50
2013,09,15,11,33,14.50
2013,09,15,11,34,14.50
2013,09,15,11,35,14.60
2013,09,15,11,36,14.60
2013,09,15,11,37,14.70
2013,09,15,11,38,14.70
2013,09,15,11,39,14.70
2013,09,15,11,40,14.70
2013,09,15,11,41,14.70
2013,09,15,11,42,14.80
2013,09,15,11,43,14.80
2013,09,15,11,44,14.80
2013,09,15,11,45,14.90
2013,09,15,11,46,14.90
2013,09,15,11,47,14.90
2013,09,15,11,48,15.00
2013,09,15,11,49,15.00
2013,09,15,11,50,15.10
2013,09,15,11,51,15.10
2013,09,15,11,52,15.10
2013,09,15,11,53,15.20
2013,09,15,11,54,15.20
2013,09,15,11,55,15.20
2013,09,15,11,56,15.20
2013,09,15,11,57,15.30
2013,09,15,11,58,15.30
2013,09,15,11,59,15.30
2013,09,15,12,00,15.40
2013,09,15,12,01,15.40
2013,09,15,12,02,15.40
2013,09,15,12,03,15.40
2013,09,15,12,04,15.40
2013,09,15,12,05,15.40
2013,09,15,12,06,15.40
2013,09,15,12,07,15.50
2013,09,15,12,08,15.50
2013,09,15,12,09,15.40
2013,09,15,12,10,15.40
2013,09,15,12,11,15.40
2013,09,15,12,12,15.40
2013,09,15,12,13,15.40
2013,09,15,12,14,15.40
2013,09,15,12,15,15.30
2013,09,15,12,16,15.30
2013,09,15,12,17,15.20
2013,09,15,12,18,15.20
2013,09,15,12,19,15.10
2013,09,15,12,20,15.10
2013,09,15,12,21,15.10
2013,09,15,12,22,15.10
2013,09,15,12,23,15.10
2013,09,15,12,24,15.10
2013,09,15,12,25,15.10
2013,09,15,12,26,15.10
2013,09,15,12,27,15.10
2013,09,15,12,28,15.10
2013,09,15,12,29,15.10
2013,09,15,12,30,15.10
2013,09,15,12,31,15.10
2013,09,15,12,32,15.10
2013,09,15,12,33,15.10
2013,09,15,12,34,15.20
2013,09,15,12,35,15.20
2013,09,15,12,36,15.20
2013,09,15,12,37,15.30
2013,09,15,12,38,15.30
2013,09,15,12,39,15.40
2013,09,15,12,40,15.40
2013,09,15,12,41,15.40
2013,09,15,12,42,15.50
2013,09,15,12,43,15.50
2013,09,15,12,44,15.50
2013,09,15,12,45,15.60
2013,09,15,12,46,15.60
2013,09,15,12,47,15.60
2013,09,15,12,48,15.60
2013,09,15,12,49,15.60
2013,09,15,12,50,15.50
2013,09,15,12,51,15.60
2013,09,15,12,52,15.60
2013,09,15,12,53,15.50
2013,09,15,12,54,15.40
2013,09,15,12,55,15.30
2013,09,15,12,56,15.20
2013,09,15,12,57,15.10
2013,09,15,12,58,15.00
2013,09,15,12,59,14.90
2013,09,15,13,00,14.90
2013,09,15,13,01,14.80
2013,09,15,13,02,14.80
2013,09,15,13,03,14.80
2013,09,15,13,04,14.80
2013,09,15,13,05,14.80
2013,09,15,13,06,14.80
2013,09,15,13,07,14.80
2013,09,15,13,08,14.80
2013,09,15,13,09,14.80
2013,09,15,13,10,14.80
2013,09,15,13,11,14.70
2013,09,15,13,12,14.70
2013,09,15,13,13,14.60
2013,09,15,13,14,14.60
2013,09,15,13,15,14.60
2013,09,15,13,16,14.70
2013,09,15,13,17,14.70
2013,09,15,13,18,14.70
2013,09,15,13,19,14.80
2013,09,15,13,20,14.80
2013,09,15,13,21,14.80
2013,09,15,13,22,14.80
2013,09,15,13,23,14.80
2013,09,15,13,24,14.80
2013,09,15,13,25,14.80
2013,09,15,13,26,14.80
2013,09,15,13,27,14.80
2013,09,15,13,28,14.80
2013,09,15,13,29,14.80
2013,09,15,13,30,14.80
2013,09,15,13,31,14.80
2013,09,15,13,32,14.80
2013,09,15,13,33,14.80
2013,09,15,13,34,14.90
2013,09,15,13,35,14.90
2013,09,15,13,36,14.90
2013,09,15,13,37,14.90
2013,09,15,13,38,14.90
2013,09,15,13,39,15.00
2013,09,15,13,40,15.00
2013,09,15,13,41,15.00
2013,09,15,13,42,15.00
2013,09,15,13,43,15.10
2013,09,15,13,44,15.10
2013,09,15,13,45,15.10
2013,09,15,13,46,15.10
2013,09,15,13,47,15.10
2013,09,15,13,48,15.20
2013,09,15,13,49,15.20
2013,09,15,13,50,15.20
2013,09,15,13,51,15.20
2013,09,15,13,52,15.30
2013,09,15,13,53,15.30
2013,09,15,13,54,15.30
2013,09,15,13,55,15.40
2013,09,15,13,56,15.40
2013,09,15,13,57,15.50
2013,09,15,13,58,15.50
2013,09,15,13,59,15.50
2013,09,15,14,00,15.50
2013,09,15,14,01,15.40
2013,09,15,14,02,15.50
2013,09,15,14,03,15.60
2013,09,15,14,04,15.60
2013,09,15,14,05,15.70
2013,09,15,14,06,15.70
2013,09,15,14,07,15.70
2013,09,15,14,08,15.80
2013,09,15,14,09,15.90
2013,09,15,14,10,16.00
2013,09,15,14,11,16.10
2013,09,15,14,12,16.10
2013,09,15,14,13,16.20
2013,09,15,14,14,16.20
2013,09,15,14,15,16.20
2013,09,15,14,16,16.30
2013,09,15,14,17,16.30
2013,09,15,14,18,16.30
2013,09,15,14,19,16.30
2013,09,15,14,20,16.40
2013,09,15,14,21,16.40
2013,09,15,14,22,16.40
2013,09,15,14,23,16.40
2013,09,15,14,24,16.50
2013,09,15,14,25,16.50
2013,09,15,14,26,16.60
2013,09,15,14,27,16.60
2013,09,15,14,28,16.70
2013,09,15,14,29,16.80
2013,09,15,14,30,16.90
2013,09,15,14,31,17.00
2013,09,15,14,32,17.00
2013,09,15,14,33,17.10
2013,09,15,14,34,17.10
2013,09,15,14,35,17.10
2013,09,15,14,36,17.10
2013,09,15,14,37,17.00
2013,09,15,14,38,16.90
2013,09,15,14,39,16.90
2013,09,15,14,40,16.80
2013,09,15,14,41,16.70
2013,09,15,14,42,16.60
2013,09,15,14,43,16.60
2013,09,15,14,44,16.50
2013,09,15,14,45,16.40
2013,09,15,14,46,16.30
2013,09,15,14,47,16.30
2013,09,15,14,48,16.30
2013,09,15,14,49,16.20
2013,09,15,14,50,16.20
2013,09,15,14,51,16.20
2013,09,15,14,52,16.20
2013,09,15,14,53,16.20
2013,09,15,14,54,16.20
2013,09,15,14,55,16.20
2013,09,15,14,56,16.20
2013,09,15,14,57,16.20
2013,09,15,14,58,16.20
2013,09,15,14,59,16.30
2013,09,15,15,00,16.30
2013,09,15,15,01,16.20
2013,09,15,15,02,15.90
2013,09,15,15,03,15.60
2013,09,15,15,04,15.30
2013,09,15,15,05,15.10
2013,09,15,15,06,14.90
2013,09,15,15,07,14.80
2013,09,15,15,08,14.70
2013,09,15,15,09,14.60
2013,09,15,15,10,14.60
2013,09,15,15,11,14.50
2013,09,15,15,12,14.50
2013,09,15,15,13,14.50
2013,09,15,15,14,14.40
2013,09,15,15,15,14.40
2013,09,15,15,16,14.50
2013,09,15,15,17,14.50
2013,09,15,15,18,14.50
2013,09,15,15,19,14.50
2013,09,15,15,20,14.50
2013,09,15,15,21,14.50
2013,09,15,15,22,14.50
2013,09,15,15,23,14.60
2013,09,15,15,24,14.60
2013,09,15,15,25,14.60
2013,09,15,15,26,14.60
2013,09,15,15,27,14.60
2013,09,15,15,28,14.60
2013,09,15,15,29,14.60
2013,09,15,15,30,14.60
2013,09,15,15,31,14.60
2013,09,15,15,32,14.60
2013,09,15,15,33,14.70
2013,09,15,15,34,14.70
2013,09,15,15,35,14.70
2013,09,15,15,36,14.70
2013,09,15,15,37,14.70
2013,09,15,15,38,14.80
2013,09,15,15,39,14.80
2013,09,15,15,40,14.80
2013,09,15,15,41,14.90
2013,09,15,15,42,14.90
2013,09,15,15,43,14.90
2013,09,15,15,44,14.90
2013,09,15,15,45,15.00
2013,09,15,15,46,15.00
2013,09,15,15,47,15.10
2013,09,15,15,48,15.10
2013,09,15,15,49,15.10
2013,09,15,15,50,15.10
2013,09,15,15,51,15.10
2013,09,15,15,52,15.10
2013,09,15,15,53,15.20
2013,09,15,15,54,15.20
2013,09,15,15,55,15.20
2013,09,15,15,56,15.20
2013,09,15,15,57,15.30
2013,09,15,15,58,15.30
2013,09,15,15,59,15.30
2013,09,15,16,00,15.30
2013,09,15,16,01,15.30
2013,09,15,16,02,15.30
2013,09,15,16,03,15.30
2013,09,15,16,04,15.30
2013,09,15,16,05,15.30
2013,09,15,16,06,15.40
2013,09,15,16,07,15.40
2013,09,15,16,08,15.40
2013,09,15,16,09,15.40
2013,09,15,16,10,15.40
2013,09,15,16,11,15.40
2013,09,15,16,12,15.30
2013,09,15,16,13,15.30
2013,09,15,16,14,15.30
2013,09,15,16,15,15.30
2013,09,15,16,16,15.20
2013,09,15,16,17,15.20
2013,09,15,16,18,15.20
2013,09,15,16,19,15.20
2013,09,15,16,20,15.20
2013,09,15,16,21,15.20
2013,09,15,16,22,15.20
2013,09,15,16,23,15.20
2013,09,15,16,24,15.20
2013,09,15,16,25,15.30
2013,09,15,16,26,15.30
2013,09,15,16,27,15.30
2013,09,15,16,28,15.30
2013,09,15,16,29,15.30
2013,09,15,16,30,15.30
2013,09,15,16,31,15.30
2013,09,15,16,32,15.30
2013,09,15,16,33,15.30
2013,09,15,16,34,15.30
2013,09,15,16,35,15.30
2013,09,15,16,36,15.40
2013,09,15,16,37,15.40
2013,09,15,16,38,15.40
2013,09,15,16,39,15.50
2013,09,15,16,40,15.50
2013,09,15,16,41,15.60
2013,09,15,16,42,15.60
2013,09,15,16,43,15.60
2013,09,15,16,44,15.70
2013,09,15,16,45,15.80
2013,09,15,16,46,15.80
2013,09,15,16,47,15.90
2013,09,15,16,48,15.90
2013,09,15,16,49,16.00
2013,09,15,16,50,16.00
2013,09,15,16,51,16.10
2013,09,15,16,52,16.10
2013,09,15,16,53,16.10
2013,09,15,16,54,16.10
2013,09,15,16,55,16.00
2013,09,15,16,56,15.80
2013,09,15,16,57,15.60
2013,09,15,16,58,15.50
2013,09,15,16,59,15.30
2013,09,15,17,00,15.30
2013,09,15,17,01,15.20
2013,09,15,17,02,15.20
2013,09,15,17,03,15.20
2013,09,15,17,04,15.20
2013,09,15,17,05,15.20
2013,09,15,17,06,15.30
2013,09,15,17,07,15.30
2013,09,15,17,08,15.30
2013,09,15,17,09,15.30
2013,09,15,17,10,15.30
2013,09,15,17,11,15.30
2013,09,15,17,12,15.30
2013,09,15,17,13,15.30
2013,09,15,17,14,15.30
2013,09,15,17,15,15.40
2013,09,15,17,16,15.40
2013,09,15,17,17,15.40
2013,09,15,17,18,15.40
2013,09,15,17,19,15.40
2013,09,15,17,20,15.40
2013,09,15,17,21,15.40
2013,09,15,17,22,15.30
2013,09,15,17,23,15.30
2013,09,15,17,24,15.40
2013,09,15,17,25,15.30
2013,09,15,17,26,15.30
2013,09,15,17,27,15.30
2013,09,15,17,28,15.30
2013,09,15,17,29,15.30
2013,09,15,17,30,15.30